Showing default

METHANESAT, 59101

Orbit data source: Space-Track

METHANESAT, 59101 is a payload satellite owned by MethaneSAT (US) in SSO that was launched on Mon, 04 Mar 2024 UTC via an FALCON 9 launch vehicle from the Air Force Western Test Range (AFWTR). Payload-class satellites include a variety of spacecraft equipped with specific instruments for various scientific and technological missions. These include communications satellites like Starlink; space stations such as the ISS; scientific satellites like the Hubble; Earth observation satellites from companies like Planet Labs, Umbra, and HawkEye 360; GPS; miniature CubeSats for education and research; and military/defense satellites.

Loading next visibility...
Identifier
59101, 2024-043D
Orbit
SSO
Country
Flag of USUS
Related business
Manufacturer
Blue Canyon
Mission
Non-operational Amateur Earth Obs Sci
Bus & Motor
SATURN X-SAT, NANO-R3
Mass
362 kg wet, 326 kg dry
Launch date (UTC)
2024-03-04 (2 years ago)
Launch vehicle
FALCON 9
Launch site
Air Force Western Test Range (AFWTR)
Object type
Payload
Rocket body
Debris
Shape & HBR
Box + 2 Pan, 3.0 m
Radar Cross Section
2.251 m², Large (>1 m²)

Expand to show TLE details & history
Last TLE update: 11 hours ago

TLE from 11 hours ago
0 METHANESAT
1 59101U 24043D   26151.36202955  .00003579  00000-0  30755-3 0  9993
2 59101  97.8417 282.3245 0011194  70.7497 289.4934 14.98036365122133
Epoch: 2026-05-31T08:41Z
TLE epoch observation values (Epoch: 2026-05-31T08:41:19.353Z)
Latitude
-0.0001°
Longitude
-96.87092°
Altitude
573.423 km
Speed
7.576 km/s
True Right ascension
18h 49m 17s
True Declination
0° 00' 00"
Sunlit
Object was in full shadow at epoch
Visualization orbit readout
Latitude
Unknown
Longitude
Unknown
Altitude
Unknown
Speed
Unknown
Apparent Right ascension
Unknown
Apparent Declination
Unknown
Sunlit
N/A
Visualization observer readout
Local Sidereal Time
05:26:17
Azimuth
Unknown
Elevation
Unknown
Doppler factor
Unknown
Orbital elements
Apogee altitude
577.756 km
Perigee altitude
562.201 km
Semi-major axis
6,948.115 km
Eccentricity
0.00112
Inclination
97.8417°
RAAN
282.3245°
Arg. of periapsis
70.7497°
True anomaly
289.37242°
Mean anomaly
289.4934°
Eccentric anomaly
289.43292°
Mean motion
3.74751 °/min
Orbital period
96.06 mins
BSTAR
0.00030755
Loading maneuver chart data...
Computing Atmospheric mass density...
Loading historical data...
Loading historical data...
Loading historical data...
Loading historical data...
Loading historical data...
Loading historical data...
Loading historical data...

Documentation

Showing up to 5 results
|